ZHONGXING-6E

Last updated on Sat Jul 05 2025 00:02:48 GMT+0000 (Coordinated Universal Time)

1 58253U 23172A 25185.65969039 -.00000347 00000+0 00000+0 0 9999 2 58253 0.0186 284.9720 0002598 39.4259 311.5260 1.00271938 6160
UTC large
Height (km)
Speed (km/s)
/
Latitude / Longitude
Inclination (degrees)
Orbital Period (minutes)
Azimuth
Elevation
Range (km)
Doppler Factor

Next 0 passes for location: London (51.5072 / 0.1276)

Sorry there are no passes over London.